Location: Hylvaty SDH
(49.9612°N, 16.4057°E)
Time: 21:11:55
(UTC+01:00)

Vanguard 1 Rocket - Pass Details

Date: 11 October 2020
Orbit: 656 x 4221 km, 34.3° (Epoch: 30 October)

Event Time Altitude Azimuth Distance (km) Brightness Sun altitude
Rises 19:44:15 0° 262° (W) 4,789 12.6 -15.8°
Reaches altitude 10° 19:47:15 10° 252° (WSW) 4,188 11.8 -16.3°
Maximum altitude 19:57:39 34° 194° (SSW) 3,800 10.5 -17.9°
Drops below altitude 10° 20:14:50 10° 140° (SE) 6,878 11.4 -20.7°
Enters shadow 20:15:31 - 139° (SE) 7,018 11.4 -20.8°
Sets 20:21:46 0° 133° (SE) 8,246 - -21.7°
